Location: Home
(42.5358°N, 72.7383°W)
Time: 20:40:05
(UTC-05:00)

Vanguard 2 - Pass Details

Date: 07 December 2021
Orbit: 553 x 2936 km, 32.9° (Epoch: 20 January)

Event Time Altitude Azimuth Distance (km) Brightness Sun altitude
Rises 11:46:05 0° 223° (SW) 2,709 11.0 24.8°
Reaches altitude 10° 11:48:50 10° 202° (SSW) 1,846 11.0 24.8°
Maximum altitude 11:51:31 17° 159° (SSE) 1,542 10.6 24.7°
Drops below altitude 10° 11:54:34 10° 118° (ESE) 2,137 10.2 24.7°
Sets 11:58:05 0° 99° (E) 3,362 10.9 24.7°
